Location: Waldport
(44.4270°N, 124.0680°W)
Time: 21:26:13
(UTC-07:00)

Envisat - Visible Passes

Search period start: 15 October 2019 00:00
Search period end: 25 October 2019 00:00
Orbit: 764 x 766 km, 98.1° (Epoch: 15 October)

Date Brightness Start Highest point End Pass type
(mag) Time Alt. Az. Time Alt. Az. Time Alt. Az.
15 Oct 5.2 20:18:06 10° SSW 20:22:20 26° W 20:26:36 10° NW visible
16 Oct 6.6 06:47:43 10° ENE 06:49:34 12° E 06:51:25 10° ESE visible
16 Oct 3.7 19:40:23 10° S 19:45:22 57° W 19:50:23 10° NNW visible
17 Oct 3.0 19:03:33 10° SSE 19:08:35 68° ENE 19:13:39 10° N visible
17 Oct 6.0 20:45:08 10° SW 20:48:06 15° W 20:51:05 10° NW visible
18 Oct 4.8 20:06:27 10° SSW 20:10:59 33° W 20:15:34 10° NNW visible
19 Oct 3.3 19:29:01 10° S 19:34:04 71° WSW 19:39:10 10° NNW visible
20 Oct 3.1 18:52:25 10° SSE 18:57:21 54° ENE 19:02:19 10° N visible
20 Oct 5.7 20:33:06 10° SW 20:36:43 19° W 20:40:21 10° NW visible
21 Oct 6.2 07:00:48 10° NE 07:04:00 17° E 07:07:12 10° SE visible
21 Oct 4.4 19:54:53 10° SSW 19:59:39 41° W 20:04:28 10° NNW visible
22 Oct 3.0 19:17:43 10° SSE 19:22:48 88° WSW 19:27:55 10° NNW visible
22 Oct 6.2 21:01:14 10° WSW 21:02:32 11° W 21:03:51 10° WNW visible
23 Oct 3.3 18:41:22 10° SE 18:46:09 44° ENE 18:50:57 10° N visible
23 Oct 5.3 20:21:15 10° SSW 20:25:20 24° W 20:29:28 10° NW visible
24 Oct 6.4 06:50:16 10° ENE 06:52:36 13° E 06:54:56 10° ESE visible
24 Oct 3.9 19:43:25 10° S 19:48:20 52° W 19:53:19 10° NNW visible
